This is the latest recevied weather packets stored in our database for station/object K5BOU. If no packets are shown the sender has not sent any weather packets the latest 10 day(s).
| Time | Temp. | Humidity | Pressure | Rain* | Wind** | Luminosity | Snow |
|---|---|---|---|---|---|---|---|
| 1788293559 | 34.44° C | 65% | 1011.6 hPa | 0 mm | - | 254 W/m² | - |
| 1788293258 | 34.44° C | 64% | 1011.8 hPa | 0 mm | - | 276 W/m² | - |
| 1788292954 | 34.44° C | 64% | 1012.1 hPa | 0 mm | - | 316 W/m² | - |
| 1788292652 | 35° C | 63% | 1012.1 hPa | 0 mm | - | 725 W/m² | - |
| 1788292346 | 35° C | 63% | 1012.2 hPa | 0 mm | - | 638 W/m² | - |
| 1788292042 | 34.44° C | 63% | 1012.1 hPa | 0 mm | - | 631 W/m² | - |
| 1788291736 | 35° C | 63% | 1012.2 hPa | 0 mm | - | 872 W/m² | - |
| 1788291433 | 34.44° C | 64% | 1012.1 hPa | 0 mm | - | 992 W/m² | - |
| 1788291127 | 35° C | 65% | 1012.3 hPa | 0 mm | - | 357 W/m² | - |
| 1788290827 | 35° C | 64% | 1012.3 hPa | 0 mm | - | 719 W/m² | - |
| 1788290522 | 35° C | 67% | 1012.3 hPa | 0 mm | - | 596 W/m² | - |
| 1788290218 | 35° C | 64% | 1012.4 hPa | 0 mm | - | 811 W/m² | - |
| 1788289914 | 35° C | 66% | 1012.3 hPa | 0 mm | - | 960 W/m² | - |
| 1788289610 | 34.44° C | 65% | 1012.3 hPa | 0 mm | - | 968 W/m² | - |
| 1788289309 | 34.44° C | 65% | 1012.6 hPa | 0 mm | - | 862 W/m² | - |
| 1788289007 | 33.33° C | 67% | 1012.7 hPa | 0 mm | - | 591 W/m² | - |
| 1788288705 | 33.89° C | 67% | 1012.6 hPa | 0 mm | - | 416 W/m² | - |
| 1788288401 | 33.33° C | 66% | 1012.6 hPa | 0 mm | - | 370 W/m² | - |
| 1788288091 | 33.33° C | 67% | 1012.7 hPa | 0 mm | - | 377 W/m² | - |
| 1788287786 | 33.89° C | 65% | 1012.9 hPa | 0 mm | - | 462 W/m² | - |
| 1788287499 | 33.89° C | 66% | 1012.8 hPa | 0 mm | - | 530 W/m² | - |
| 1788287177 | 33.33° C | 67% | 1013.2 hPa | 0 mm | - | 495 W/m² | - |
| 1788286876 | 34.44° C | 66% | 1013 hPa | 0 mm | - | 504 W/m² | - |
| 1788286571 | 33.89° C | 68% | 1013 hPa | 0 mm | - | 724 W/m² | - |
| 1788286270 | 32.78° C | 69% | 1013 hPa | 0 mm | - | 1022 W/m² | - |
* Rain latest hour (hover to see other rain measurements)
** Current wind speed in m/s (hover to see current wind gust speed)